[[{"header":{"parameterUnit":"m.s-1","parameterCategory":1,"la1":30.2991,"la2":30.254,"lo1":-89.0895,"lo2":-89.0444,"dx":0.0017,"dy":0.0017,"nx":28,"ny":28,"refTime":"2022-12-30T15:00:00:Z","depth":0,"parameterNumber":2,"parameterNumberName":"U-component_of_WINDS"},"data":[0,0,0,0,0,0,0,0,0,0,0,0,0,0,0,0,0,0,0,0,0,0,0,0,0,0,0,0,0,0,0,0,0,0,0,0,0,0,0,0,0,0,0,0,0,0,0,0,0,0,0,0,0,0,0,0,0,0,0.3159,0.3168,0,0.3971,0.398,0.3989,0.4302,0.4299,0.4297,0.4295,0.514,0.5164,0.5188,0,0,0,0,0,0,0,0,0,0,0,0,0,0.1896,0.1917,0.3158,0.3169,0.3179,0.3969,0.3981,0.3992,0.4302,0.4299,0.4296,0.4294,0.5132,0.5161,0.5191,0,0,0,0,0,0,0,0,0,0,0,0,0,0.255,0.1924,0.3157,0.3428,0.3461,0.3967,0.3981,0.3995,0.4303,0.4299,0.4296,0.4292,0.5122,0.5158,0.5195,0.5495,0,0,0.5308,0.5324,0,0,0,0,0,0,0,0,0.2512,0.2596,0.3378,0.3411,0.3448,0.4031,0.3846,0.4498,0.4304,0.3984,0.4295,0.4291,0.4775,0.484,0.5001,0.5534,0.5571,0.5311,0.5334,0.535,0.536,0,0,0,0,0,0,0,0.2467,0.2563,0.3481,0.3389,0.3432,0.3517,0.3605,0.3971,0.439,0.4011,0.4036,0.4127,0.4793,0.4964,0.5023,0.5583,0.531,0.5343,0.5366,0.5381,0.6412,0.6416,0,0,0,0,0,0,0.2374,0.2523,0.3455,0.3505,0.2961,0.3542,0.3641,0.3848,0.4386,0.4465,0.4129,0.4138,0.4903,0.4979,0.5054,0.5446,0.5349,0.5384,0.5406,0.6406,0.6413,0.6418,0,0,0,0,0,0,0.2345,0.2454,0.3422,0.3021,0.3151,0.3567,0.3797,0.3866,0.4037,0.4475,0.4553,0.4225,0.4903,0.5002,0.5384,0.5479,0.5401,0.5435,0.64,0.6408,0.6415,0.6226,0,0,0,0,0,0,0.2308,0.2442,0.2555,0.3021,0.317,0.3732,0.3802,0.3884,0.4098,0.4118,0.4587,0.4661,0.4908,0.5327,0.542,0.5529,0.5464,0.6394,0.6404,0.6413,0.6226,0.6226,0.6227,0,0,0,0,0,0.2262,0.2471,0.2559,0.267,0.332,0.3736,0.3823,0.4099,0.4104,0.4226,0.4509,0.4646,0.5452,0.5363,0.5471,0.5592,0.6389,0.6401,0.6412,0.6226,0.6226,0.6227,0,0,0,0,0,0,0.201,0.2537,0.264,0.3005,0.3323,0.3788,0.3949,0.409,0.4416,0.4422,0.4755,0.4858,0.5214,0.5442,0.5332,0.5914,0.5931,0.5965,0.5752,0.5757,0.5757,0.5696,0.5494,0,0,0,0,0,0.1996,0.2284,0.2732,0.3011,0.3165,0.3528,0.372,0.3905,0.425,0.4387,0.4698,0.5031,0.5362,0.5572,0.5899,0.626,0.637,0.6397,0.6397,0.6396,0.6422,0.6637,0.6655,0.6456,0.6456,0.6456,0,0,0.1972,0.2296,0.2458,0.2969,0.3237,0.3535,0.364,0.3949,0.4176,0.4437,0.4816,0.5055,0.545,0.5824,0.6004,0.6025,0.6501,0.6411,0.6406,0.6434,0.665,0.6669,0.6685,0.6464,0.6463,0.6461,0,0,0.2081,0.2351,0.2616,0.2883,0.3286,0.3528,0.359,0.4036,0.4204,0.4589,0.4793,0.507,0.5628,0.5903,0.6116,0.6333,0.6474,0.643,0.6434,0.6639,0.6655,0.6671,0.6753,0.6778,0.6454,0.6454,0.6454,0,0.2001,0.2451,0.2736,0.3036,0.3258,0.3504,0.3779,0.4026,0.4516,0.4667,0.4682,0.5392,0.5675,0.6119,0.6172,0.6334,0.6423,0.6379,0.6628,0.6647,0.6666,0.6749,0.6778,0.6446,0.6447,0.6448,0.6449,0,0.2337,0.2647,0.2814,0.3277,0.3519,0.3804,0.4138,0.4349,0.4514,0.4755,0.5149,0.5497,0.5901,0.602,0.6185,0.6491,0.6492,0.6562,0.6587,0.6672,0.6756,0.6789,0.6435,0.6438,0.644,0.6442,0,0,0.2308,0.2927,0.2984,0.32,0.3665,0.3914,0.4214,0.4606,0.4783,0.5114,0.5379,0.5848,0.5918,0.6159,0.6358,0.6537,0.6694,0.659,0.6604,0.66,0.7058,0.7003,0.7034,0.6789,0.6796,0.6802,0.7026,0,0.2481,0.3022,0.3289,0.3717,0.4012,0.4252,0.4515,0.4832,0.5067,0.5356,0.5618,0.5946,0.6012,0.616,0.6348,0.6633,0.6791,0.6621,0.7044,0.7055,0.6939,0.7077,0.702,0.7214,0.706,0.7066,0.707,0,0.2755,0.3081,0.3536,0.3971,0.4105,0.4335,0.4719,0.499,0.5358,0.5517,0.5786,0.5981,0.6313,0.6311,0.6777,0.6656,0.6846,0.7013,0.7027,0.708,0.7069,0.7137,0.7283,0.7312,0.7123,0.7119,0.7115,0,0.2692,0.3247,0.3593,0.377,0.4284,0.4442,0.4665,0.5029,0.5249,0.5586,0.5734,0.6106,0.6311,0.6597,0.689,0.686,0.7329,0.735,0.7476,0.7468,0.7565,0.7555,0.7746,0.768,0.768,0.7679,0.7678,0,0.2859,0.3129,0.3572,0.3784,0.4097,0.4405,0.4709,0.4951,0.5273,0.5543,0.5775,0.6024,0.6393,0.6691,0.6922,0.7276,0.7366,0.7508,0.7567,0.7489,0.7471,0.762,0.7615,0.7687,0.7686,0.7684,0.7683,0,0.2842,0.3148,0.3542,0.3997,0.4119,0.4329,0.4724,0.4943,0.519,0.5528,0.5626,0.6016,0.6378,0.6698,0.7178,0.7334,0.7698,0.7768,0.7572,0.7604,0.7713,0.7699,0.8009,0.8067,0.7955,0.7956,0.7956,0,0.2929,0.3142,0.362,0.3815,0.4033,0.4344,0.457,0.4884,0.5111,0.5549,0.5717,0.6095,0.6415,0.6984,0.7314,0.7684,0.7768,0.7851,0.7825,0.7742,0.7775,0.7759,0.7785,0.785,0.785,0.7849,0.7849,0,0.3052,0.3194,0.3507,0.3876,0.4137,0.4444,0.4758,0.4906,0.528,0.5524,0.5896,0.6143,0.6634,0.701,0.7417,0.7654,0.7817,0.7854,0.7904,0.7828,0.7707,0.7779,0.7573,0.7846,0.7847,0.7847,0.7847,0.7847,0.3095,0.3297,0.3666,0.4009,0.4278,0.4566,0.4796,0.5072,0.5386,0.5807,0.5975,0.6355,0.6725,0.7288,0.7525,0.7832,0.786,0.793,0.7949,0.7962,0.7951,0.7655,0.7907,0.7907,0.7908,0.7908,0.7909,0,0.3233,0.3482,0.3795,0.4225,0.4497,0.4622,0.4978,0.5199,0.5528,0.5857,0.6167,0.6598,0.6964,0.7323,0.7709,0.7886,0.7971,0.7977,0.7969,0.8023,0.7901,0.7821,0.7903,0.7903,0.7903,0.7903,0.7902,0.7902,0.3337,0.3688,0.3874,0.4364,0.4615,0.4985,0.5178,0.5449,0.5714,0.6182,0.6487,0.6717,0.7062,0.7476,0.782,0.7917,0.805,0.8037,0.8154,0.8034,0.803,0.8027,0.7954,0.8062,0.8062,0.8252,0.8253,0.8254]},{"header":{"parameterUnit":"m.s-1","parameterCategory":1,"la1":30.2991,"la2":30.254,"lo1":-89.0895,"lo2":-89.0444,"dx":0.0017,"dy":0.0017,"nx":28,"ny":28,"refTime":"2022-12-30T15:00:00:Z","depth":0,"parameterNumber":3,"parameterNumberName":"V-component_of_WINDS"},"data":[0,0,0,0,0,0,0,0,0,0,0,0,0,0,0,0,0,0,0,0,0,0,0,0,0,0,0,0,0,0,0,0,0,0,0,0,0,0,0,0,0,0,0,0,0,0,0,0,0,0,0,0,0,0,0,0,0,0,-5.8456,-5.846,0,-5.8775,-5.8778,-5.8782,-5.8747,-5.8742,-5.8737,-5.8733,-5.9049,-5.9061,-5.9074,0,0,0,0,0,0,0,0,0,0,0,0,0,-5.7805,-5.7817,-5.8456,-5.846,-5.8464,-5.8774,-5.8778,-5.8783,-5.8748,-5.8742,-5.8736,-5.873,-5.9044,-5.906,-5.9075,0,0,0,0,0,0,0,0,0,0,0,0,0,-5.8102,-5.7821,-5.8455,-5.8484,-5.849,-5.8773,-5.8778,-5.8784,-5.875,-5.8742,-5.8735,-5.8728,-5.9039,-5.9058,-5.9077,-5.9349,0,0,-5.9137,-5.9146,0,0,0,0,0,0,0,0,-5.8085,-5.8126,-5.8476,-5.8483,-5.849,-5.8714,-5.8664,-5.8973,-5.8752,-5.8651,-5.8733,-5.8724,-5.8943,-5.897,-5.9045,-5.9363,-5.9377,-5.9139,-5.9151,-5.9159,-5.9165,0,0,0,0,0,0,0,-5.8064,-5.8112,-5.8582,-5.8481,-5.849,-5.8477,-5.8511,-5.8723,-5.8834,-5.8659,-5.8657,-5.8696,-5.8945,-5.9027,-5.9053,-5.9382,-5.9139,-5.9156,-5.9168,-5.9176,-5.9931,-5.9939,0,0,0,0,0,0,-5.8038,-5.8095,-5.8571,-5.8591,-5.8265,-5.8495,-5.8533,-5.8649,-5.8832,-5.8853,-5.8702,-5.8693,-5.8997,-5.903,-5.9064,-5.9391,-5.9159,-5.9178,-5.9189,-5.9923,-5.9933,-5.9942,0,0,0,0,0,0,-5.8024,-5.8081,-5.8559,-5.8343,-5.8403,-5.8514,-5.8645,-5.866,-5.8742,-5.8865,-5.8883,-5.8766,-5.8992,-5.9036,-5.9278,-5.9401,-5.9186,-5.9204,-5.9913,-5.9926,-5.9938,-6.0049,0,0,0,0,0,0,-5.8006,-5.8077,-5.8185,-5.8346,-5.8414,-5.8772,-5.8653,-5.8671,-5.8777,-5.8768,-5.893,-5.895,-5.899,-5.9248,-5.9297,-5.9424,-5.922,-5.9903,-5.9919,-5.9934,-6.0034,-6.0063,-6.0088,0,0,0,0,0,-5.7983,-5.8202,-5.819,-5.8248,-5.8552,-5.878,-5.8818,-5.8864,-5.8787,-5.8894,-5.8972,-5.8944,-5.9379,-5.9274,-5.9328,-5.9463,-5.9895,-5.9915,-5.9933,-6.0022,-6.0058,-6.0087,0,0,0,0,0,0,-5.8051,-5.8224,-5.8213,-5.8491,-5.8621,-5.8773,-5.8911,-5.89,-5.9052,-5.9037,-5.9082,-5.9119,-5.9362,-5.9436,-5.9315,-5.9732,-5.9626,-5.9657,-5.9676,-5.971,-5.9737,-5.9714,-5.9236,0,0,0,0,0,-5.8098,-5.8272,-5.8412,-5.8644,-5.871,-5.8799,-5.89,-5.8923,-5.9058,-5.9112,-5.9208,-5.9336,-5.9501,-5.9609,-5.9768,-6.0043,-6.0076,-6.0162,-6.0189,-6.021,-6.0237,-6.0383,-6.0422,-6.0004,-6.0004,-6.0003,0,0,-5.8198,-5.8314,-5.8421,-5.8661,-5.8764,-5.8939,-5.8846,-5.9036,-5.9164,-5.9139,-5.9374,-5.9448,-5.9594,-5.9853,-5.9971,-5.9922,-6.0358,-6.0234,-6.025,-6.0265,-6.0406,-6.0446,-6.0481,-6.0017,-6.0014,-6.0012,0,0,-5.8469,-5.8576,-5.878,-5.8885,-5.9043,-5.91,-5.9148,-5.9302,-5.9351,-5.9587,-5.9571,-5.9721,-6.0006,-6.011,-6.02,-6.0504,-6.0482,-6.0553,-6.0694,-6.0836,-6.0869,-6.0899,-6.1005,-6.1043,-6.0579,-6.0579,-6.0579,0,-5.8573,-5.8841,-5.8885,-5.9077,-5.9181,-5.9167,-5.937,-5.9469,-5.9669,-5.9739,-5.9681,-6.0035,-6.0132,-6.0413,-6.0487,-6.0561,-6.0614,-6.0537,-6.0862,-6.0892,-6.092,-6.1021,-6.1061,-6.0587,-6.0586,-6.0585,-6.0584,0,-5.8958,-5.9143,-5.9288,-5.9485,-5.9604,-5.98,-5.987,-5.9984,-5.9994,-6.0055,-6.0292,-6.0408,-6.0589,-6.0656,-6.0668,-6.0937,-6.0901,-6.0852,-6.0747,-6.0966,-6.1062,-6.1102,-6.0597,-6.0595,-6.0592,-6.0591,0,0,-5.9287,-5.9502,-5.9555,-5.9642,-5.9812,-5.9954,-6.0146,-6.0325,-6.0421,-6.0557,-6.0717,-6.0955,-6.091,-6.1012,-6.1033,-6.1158,-6.1388,-6.1093,-6.1097,-6.1143,-6.1687,-6.1724,-6.1769,-6.1373,-6.1381,-6.1387,-6.1674,0,-5.9576,-5.9922,-5.9965,-6.027,-6.0439,-6.0424,-6.0591,-6.071,-6.0771,-6.0918,-6.0982,-6.115,-6.1078,-6.1139,-6.1262,-6.1334,-6.1497,-6.1313,-6.1519,-6.1526,-6.1484,-6.1819,-6.186,-6.2127,-6.1712,-6.1719,-6.1723,0,-5.9961,-6.011,-6.0433,-6.0576,-6.0648,-6.0799,-6.0963,-6.1106,-6.1237,-6.1272,-6.1383,-6.1388,-6.158,-6.1465,-6.1729,-6.1603,-6.1688,-6.1735,-6.1746,-6.1768,-6.1639,-6.1849,-6.2213,-6.2253,-6.1783,-6.1779,-6.1774,0,-6.0167,-6.0448,-6.0677,-6.0751,-6.0925,-6.1029,-6.1105,-6.1231,-6.1333,-6.1475,-6.1541,-6.1702,-6.179,-6.1911,-6.1956,-6.1869,-6.2216,-6.2106,-6.2246,-6.2246,-6.2323,-6.2317,-6.2704,-6.2376,-6.2376,-6.2375,-6.2374,0,-6.0486,-6.0684,-6.0772,-6.0913,-6.1131,-6.1174,-6.1388,-6.1459,-6.1569,-6.1719,-6.1714,-6.1853,-6.1905,-6.2051,-6.2086,-6.2297,-6.2336,-6.2366,-6.2373,-6.2368,-6.2364,-6.2425,-6.2408,-6.2386,-6.2383,-6.2381,-6.2379,0,-6.0756,-6.0823,-6.1071,-6.1213,-6.1253,-6.1408,-6.1527,-6.166,-6.1715,-6.1905,-6.1951,-6.2038,-6.221,-6.2266,-6.2473,-6.2496,-6.2741,-6.2732,-6.2698,-6.2699,-6.2836,-6.2822,-6.3277,-6.3337,-6.2969,-6.2973,-6.2976,0,-6.0956,-6.1108,-6.1266,-6.1368,-6.1448,-6.1612,-6.1717,-6.1761,-6.187,-6.2028,-6.2141,-6.2311,-6.2451,-6.2724,-6.2802,-6.2958,-6.2952,-6.31,-6.2976,-6.2964,-6.2953,-6.2944,-6.2958,-6.3124,-6.3128,-6.3131,-6.3134,0,-6.1304,-6.1328,-6.1482,-6.1646,-6.1772,-6.1902,-6.2028,-6.211,-6.2172,-6.2292,-6.2469,-6.2577,-6.2787,-6.2955,-6.3113,-6.3184,-6.3169,-6.3172,-6.3212,-6.3209,-6.3183,-6.3197,-6.2762,-6.3162,-6.3159,-6.3157,-6.3156,-6.3155,-6.1546,-6.1678,-6.181,-6.1979,-6.2078,-6.2194,-6.2325,-6.2396,-6.2546,-6.2723,-6.2738,-6.2927,-6.3047,-6.3259,-6.3338,-6.3482,-6.344,-6.3499,-6.3514,-6.3528,-6.3539,-6.3158,-6.3511,-6.351,-6.351,-6.3509,-6.3508,0,-6.1893,-6.1975,-6.213,-6.2307,-6.2438,-6.2412,-6.2548,-6.2659,-6.2827,-6.2942,-6.3079,-6.3278,-6.3438,-6.3527,-6.3686,-6.3784,-6.378,-6.3824,-6.3818,-6.3834,-6.3568,-6.3517,-6.3824,-6.3824,-6.3824,-6.3824,-6.3824,-6.3824,-6.2089,-6.2312,-6.2351,-6.2619,-6.2698,-6.2887,-6.2966,-6.307,-6.3163,-6.3387,-6.3521,-6.3578,-6.3681,-6.3846,-6.399,-6.4011,-6.4069,-6.4118,-6.4134,-6.3885,-6.3853,-6.3822,-6.3774,-6.413,-6.4131,-6.4387,-6.439,-6.4391]}]]